User: anonymous   Login
Location: Unspecified
(0.0000°N, 0.0000°E)
Time: 00:55:58
(UTC+00:00)
Language:

STARLINK-32143 - Orbit

View from above orbital plane
View from above orbital plane
View from above satellite
View from above satellite

Ground track
Ground track

The orbit is defined by the following mean orbital elements,

1 60296U          26145.18958782 +.00000000 +00000-0 +41512-4 0 00009
2 60296  53.1613  57.0427 0000820 122.0989 238.0092 15.31702917    00
Epoch (UTC): 25 May 2026 04:33:00
Eccentricity: 0.0000820
inclination: 53.1613°
perigee height: 470 km
apogee height: 471 km
right ascension of ascending node: 57.0427°
argument of perigee: 122.0989°
revolutions per day: 15.31702917
mean anomaly at epoch: 238.0092°

The dashed part of the orbit path shows where the satellite is in the earth's shadow,  

DLR